Location: Carnoy
(49.9849°N, 2.7558°E)
Time: 21:58:41
(UTC+00:00)

ERBS - Pass Details

Date: 24 January 2020
Orbit: 412 x 428 km, 57.0° (Epoch: 18 February)

Event Time Altitude Azimuth Distance (km) Brightness Sun altitude
Rises 17:51:35 0° 237° (WSW) 2,349 7.6 -13.1°
Reaches altitude 10° 17:53:40 10° 238° (WSW) 1,487 6.3 -13.4°
Maximum altitude 17:57:00 84° 328° (NNW) 422 2.2 -14.0°
Enters shadow 17:58:39 27° 54° (NE) 830 3.2 -14.2°
